"Pseudo-MPEC" for P22bxpG

Created 2025 Jul 7 0:35:11 UT using Find_Orb

Click here for an explanation of pseudo-MPECs

 
 Astrometry: 
     P22bxpG  C2025 07 01.34761318 26 08.298+30 47 27.60   ~74Mo 21.89wXNEOCPF52
     P22bxpG  C2025 07 01.35650618 26 07.719+30 47 26.16   ~74Mo 22.07wXNEOCPF52
     P22bxpG  C2025 07 01.36543518 26 07.150+30 47 24.78   ~74Mo 22.09wXNEOCPF52
     P22bxpG* C2025 07 04.33796318 23 07.942+30 35 47.96   ~74A5 22.25wXNEOCPF52
     P22bxpG  C2025 07 04.34495618 23 07.493+30 35 46.17   ~74A5 22.06wXNEOCPF52
     P22bxpG  C2025 07 04.35196318 23 07.045+30 35 44.17   ~74A5 21.74wXNEOCPF52
     P22bxpG  C2025 07 04.35897318 23 06.599+30 35 42.12   ~74A5 21.74wXNEOCPF52
     P22bxpG  C2025 07 04.45276118 23 00.624+30 35 14.13   ~74N5 22.26GVNEOCPF51
     P22bxpG  C2025 07 04.45340418 23 00.577+30 35 14.08   ~74N5 21.54GVNEOCPF51
     P22bxpG KC2025 07 05.19780118 22 16.60 +30 31 15.7    ~755o 22.1 GVNEOCPH21
     P22bxpG KC2025 07 05.21224418 22 15.72 +30 31 10.5    ~755o       VNEOCPH21
     P22bxpG KC2025 07 05.22331418 22 15.02 +30 31 07.1    ~755o 22.0 GVNEOCPH21
     P22bxpG 2C2025 07 05.35462318 22 07.491+30 30 25.67   ~7645 22.2 GWNEOCPT12
     P22bxpG 2C2025 07 05.35844318 22 07.250+30 30 24.28   ~7645 22.2 GWNEOCPT12
     P22bxpG KC2025 07 06.20597818 21 17.28 +30 25 19.5    ~765Z 21.9 GVNEOCPH21
     P22bxpG KC2025 07 06.20886718 21 17.09 +30 25 18.3    ~765Z 22.2 GVNEOCPH21
     P22bxpG KC2025 07 06.21406718 21 16.78 +30 25 16.5    ~765Z 22.2 GVNEOCPH21
     P22bxpG  C2025 07 06.23391218 21 15.729+30 25 09.80   ~7665 21.8 GWNEOCPH01
     P22bxpG  C2025 07 06.23827518 21 15.456+30 25 08.18   ~7665 21.7 GWNEOCPH01

Station data:
(F51) Pan-STARRS 1, Haleakala  (N20.707234 W156.255910)  US/Hawaii.
   Observers J. Bulger, T. Lowe, A. Schultz, M. Willman. Measurers K.
   Chambers, S. Chastel, T. de Boer, L. Denneau, J. Fairlamb, H. Flewelling,
   M. Huber, C.-C. Lin, E. Magnier, Y. Ramanjooloo, R. Wainscoat, R. Weryk.
   1.8-m Ritchey-Chrétien + CCD.
(F52) Pan-STARRS 2, Haleakala  (N20.707382 W156.255910)  US/Hawaii.
   Observers J. Bulger, T. Dukes, T. Lowe, A. Schultz, M. Willman. Measurers
   K. Chambers, S. Chastel, T. de Boer, L. Denneau, J. Fairlamb, H.
   Flewelling, M. Huber, C.-C. Lin, E. Magnier, Y. Ramanjooloo, R. Wainscoat,
   R. Weryk. 1.8-m Ritchey-Chrétien + CCD.
(H01) Magdalena Ridge Observatory, Socorro  (N33.984833 W107.189333)  US/New
   Mexico.  Observers W. H. Ryan, E. V. Ryan. Measurer W. H. Ryan. 2.4-m
   f/8.9 reflector + CCD.
(H21) Astronomical Research Observatory, Westfield  (N39.483054 W87.968270)
   US/Illinois.  Observer R. Holmes. Measurers S. Foglia, L. Buzzi, T.
   Linder, R. Holmes. 0.40-m f/5.32 astrograph + CCD.
(T12) Mauna Kea-UH/Tholen NEO Follow-Up (2.24-m)  (N19.822991 W155.469434)
   US/Hawaii.  Observer Y. Ramanjooloo. 2.24-m f/10.1 University of Hawaii
   reflector.

Orbital elements:  P22bxpG
   Perihelion 2025 Sep 13.10508 +/- 3.76 TT =  2:31:18 (JD 2460931.60508)
Epoch 2025 Jul  6.0 TT = JDT 2460862.5   Earth MOID: 0.7703      AutoNEOCP
M 332.81492752 +/- 1.4              (J2000 ecliptic)
n   0.39338749 +/- 0.000494         Peri.  129.12883 +/- 1.7
a   1.84468556 +/- 0.00154          Node   181.66242 +/- 0.12
e   0.0527029 +/- 0.00115           Incl.   26.37782 +/- 0.028
P   2.505/915.111d         H 19.75  G  0.15   U  7.7
q 1.74746527 +/- 0.00189    Q 1.94190584 +/- 0.00324
From 19 observations 2025 July 1-6; mean residual 0".10
Residuals in arcseconds: 
250701 F52  .01+  .00     250704 F51  .03+  .07-    250706 H21  .14+  .02+    
250701 F52  .06-  .03-    250704 F51  .05-  .07+    250706 H21  .00   .10-    
250701 F52  .05+  .03+    250705 H21  .24-  .39+    250706 H21  .15+  .04+    
250704 F52  .09+  .14-    250705 H21  .07+  .05-    250706 H01  .04-  .01+    
250704 F52  .02+  .05+    250705 H21  .02-  .23+    250706 H01  .07-  .00     
250704 F52  .02-  .05+    250705 T12  .00   .06+    
250704 F52  .03-  .01+    250705 T12  .00   .07-    

Ephemerides (geocentric):
Date (UTC) HH   RA             Dec           delta  r     elong  mag " sig PA
---- --------  ------------   ------------  ------ ------ -----  --- --------
2025 07 07 01  18 20 28.614   +30 19 54.28  .95719 1.7590 126.0 22.1 .220 158
2025 07 07 02  18 20 26.205   +30 19 37.25  .95718 1.7590 126.0 22.1 .226 158
2025 07 07 03  18 20 23.797   +30 19 20.14  .95717 1.7590 126.0 22.1 .233 158
2025 07 07 04  18 20 21.391   +30 19 02.97  .95717 1.7590 126.0 22.1 .240 158
2025 07 07 05  18 20 18.986   +30 18 45.72  .95716 1.7590 126.0 22.1 .247 158
2025 07 07 06  18 20 16.582   +30 18 28.41  .95716 1.7589 126.0 22.1 .254 158
2025 07 07 07  18 20 14.180   +30 18 11.02  .95715 1.7589 126.0 22.1 .261 158
2025 07 07 08  18 20 11.780   +30 17 53.57  .95715 1.7589 126.0 22.1 .268 158
2025 07 07 09  18 20 09.380   +30 17 36.04  .95714 1.7589 126.0 22.1 .275 158
2025 07 07 10  18 20 06.982   +30 17 18.44  .95714 1.7589 126.0 22.1 .282 158
2025 07 07 11  18 20 04.586   +30 17 00.77  .95713 1.7589 126.0 22.1 .289 158
2025 07 07 12  18 20 02.191   +30 16 43.03  .95713 1.7589 126.0 22.1 .297 158
2025 07 07 13  18 19 59.798   +30 16 25.22  .95713 1.7588 126.0 22.1 .304 158
2025 07 07 14  18 19 57.406   +30 16 07.34  .95712 1.7588 126.0 22.1 .312 158
2025 07 07 15  18 19 55.016   +30 15 49.39  .95712 1.7588 126.0 22.1 .319 158
2025 07 07 16  18 19 52.627   +30 15 31.37  .95711 1.7588 126.0 22.1 .327 158
2025 07 07 17  18 19 50.239   +30 15 13.28  .95711 1.7588 126.0 22.1 .335 158
2025 07 07 18  18 19 47.853   +30 14 55.12  .95711 1.7588 126.0 22.1 .343 158
2025 07 07 19  18 19 45.469   +30 14 36.89  .95710 1.7588 126.0 22.1 .351 157
2025 07 07 20  18 19 43.086   +30 14 18.59  .95710 1.7587 126.0 22.1 .359 157
2025 07 07 21  18 19 40.705   +30 14 00.21  .95710 1.7587 126.0 22.1 .367 157
2025 07 07 22  18 19 38.325   +30 13 41.77  .95710 1.7587 126.0 22.1 .375 157
2025 07 07 23  18 19 35.947   +30 13 23.26  .95709 1.7587 126.0 22.1 .383 157
2025 07 08 00  18 19 33.570   +30 13 04.67  .95709 1.7587 126.0 22.1 .391 157
2025 07 08 01  18 19 31.195   +30 12 46.02  .95709 1.7587 126.0 22.1 .400 157
2025 07 08 02  18 19 28.821   +30 12 27.30  .95709 1.7587 126.0 22.1 .408 157
2025 07 08 03  18 19 26.449   +30 12 08.50  .95709 1.7587 126.0 22.1 .417 157
2025 07 08 04  18 19 24.079   +30 11 49.64  .95709 1.7586 126.0 22.1 .425 157
2025 07 08 05  18 19 21.710   +30 11 30.71  .95708 1.7586 126.0 22.1 .434 157
2025 07 08 06  18 19 19.343   +30 11 11.70  .95708 1.7586 126.0 22.1 .443 157
2025 07 08 07  18 19 16.977   +30 10 52.63  .95708 1.7586 126.0 22.1 .451 157
2025 07 08 08  18 19 14.613   +30 10 33.49  .95708 1.7586 126.0 22.1 .460 157
2025 07 08 09  18 19 12.251   +30 10 14.27  .95708 1.7586 126.0 22.1 .469 157
2025 07 08 10  18 19 09.890   +30 09 54.99  .95708 1.7586 126.0 22.1 .478 157
2025 07 08 11  18 19 07.531   +30 09 35.63  .95708 1.7585 126.0 22.1 .487 157
2025 07 08 12  18 19 05.173   +30 09 16.21  .95708 1.7585 126.0 22.1 .497 157
2025 07 08 13  18 19 02.817   +30 08 56.72  .95708 1.7585 126.0 22.1 .506 157
2025 07 08 14  18 19 00.463   +30 08 37.16  .95708 1.7585 126.0 22.1 .515 157
2025 07 08 15  18 18 58.110   +30 08 17.52  .95708 1.7585 126.0 22.1 .524 157
2025 07 08 16  18 18 55.759   +30 07 57.82  .95708 1.7585 126.0 22.1 .534 157
2025 07 08 17  18 18 53.410   +30 07 38.05  .95708 1.7585 126.0 22.1 .543 157
2025 07 08 18  18 18 51.063   +30 07 18.21  .95708 1.7584 126.0 22.1 .553 157
2025 07 08 19  18 18 48.717   +30 06 58.29  .95708 1.7584 126.0 22.1 .563 157
2025 07 08 20  18 18 46.372   +30 06 38.31  .95709 1.7584 126.0 22.1 .573 157
2025 07 08 21  18 18 44.030   +30 06 18.26  .95709 1.7584 126.0 22.1 .582 157
2025 07 08 22  18 18 41.689   +30 05 58.14  .95709 1.7584 126.0 22.1 .592 156
2025 07 08 23  18 18 39.350   +30 05 37.95  .95709 1.7584 126.0 22.1 .602 156
2025 07 09 00  18 18 37.012   +30 05 17.69  .95709 1.7584 125.9 22.1 .612 156